DECAYED
Showing default

DRAGON CRS-31, 61791 (Decayed)

Orbit data source: Space-Track

DRAGON CRS-31, 61791 was a payload satellite owned by SpaceX (US) in LEO that was launched on Tue, 05 Nov 2024 UTC via an FALCON 9 launch vehicle from the Air Force Eastern Test Range (AFETR). Payloads include a variety of satellites, spacecraft, and rockets equipped with specific instruments for various scientific and technological missions. These include communications satellites like Starlink; space stations such as the ISS; scientific satellites like the Hubble; Earth observation satellites from companies like Planet Labs, Umbra, and HawkEye 360; GPS; miniature CubeSats for education and research; and military/defense satellites.

Loading next visibility...
DRAGON CRS-31 details
Identifier
61791, 2024-200A
Orbit
Decayed
Last TLE update1 week ago
Origin
Flag of USSpaceX (US)
ManufacturerSpaceX
MissionDecayed spacecraft
Bus & MotorDRAGON CM, Unknown motor
Mass~15,600 kg wet, ~9,000 kg dry
Launch date (UTC)
2024-11-05 (2 months ago)
Launch vehicle
FALCON 9
Launch site
Air Force Eastern Test Range (AFETR)
Object type
Payload
Rocket body
Debris
Shape & HBRUnknown
Radar Cross SectionLarge (>1 m²)

Expand to show TLE details & history

TLE from 1 week ago
0 DRAGON CRS-31
1 61791U 24200A   24353.53506710  .00013558  00000-0  23891-3 0  9994
2 61791  51.6382 122.0276 0007778 354.9631   5.1279 15.50711352  6281
Epoch: 2024-12-18T12:50Z
Definitive object data (Epoch: 2024-12-18T12:50:29.797Z)
Latitude
Longitude-158.22444°
Altitude410.127 km
Speed7.669 km/s
True Right ascension08h 08m 06s
True Declination0° 00' 00"
Sunlit
Object was in full shadow at TLE epoch
Visualization TLE readout
Latitude-5.18133°
Longitude-14.59066°
Altitude420.525 km
Speed7.657 km/s
Apparent Right ascension20h 34m 40s
Apparent Declination-54° 39' 51"
Sunlit
Object is in daylight
Visualization observer readout
Local Sidereal Time15:52:33
Azimuth143.957° SSE
Elevation-22.063°
Doppler factor1
Orbital elements
Apogee altitude420.44 km
Perigee altitude409.872 km
Semi-major axis6,793.293 km
Eccentricity0.0007778
Inclination51.6382°
RAAN122.0276°
Arg. of periapsis354.9631°
True anomaly5.13587°
Mean anomaly5.1279°
Eccentric anomaly5.13189°
Mean motion3.87635 °/min
BSTAR0.00023891
Orbital period92.87 mins
Loading maneuver chart data...
Loading historical data...
Loading historical data...
Loading historical data...
Loading historical data...
Loading historical data...
Loading historical data...
Loading historical data...
Other satellites on launch #200 in the year 2024 (2024-11-05 UTC)

DRAGON CRS-31 Visibility forecast

Observer location: undefined°, undefined

Span
Click to sort rows by Start time (UTC) header in descending order
Start Az.
Max El. time (UTC)
Max El. Az.
Max El.
End time (UTC)
End Az.
4 mins2024-12-27 08:56:22.145Z258.927° W2024-12-27 08:58:22.145Z348.799° N37.216°2024-12-27 09:00:22.145Z39.58° NE
4 mins2024-12-27 13:49:22.145Z347.842° N2024-12-27 13:50:22.145Z14.389° NNE22.997°2024-12-27 13:53:22.145Z83.199° E
4 mins2024-12-27 15:26:22.145Z271.242° WNW2024-12-27 15:27:22.145Z230.687° WSW33.528°2024-12-27 15:30:22.145Z152.545° SSE
|